Location: Newark
(48.9320°N, 2.2664°E)
Time: 19:46:48
(UTC+00:00)

Vanguard 2 - All Passes

Search period start: 16 February 2020 00:00
Search period end: 26 February 2020 00:00
Orbit: 552 x 2939 km, 32.9° (Epoch: 16 February)

Date Brightness Start Highest point End Pass type
(mag) Time Alt. Az. Time Alt. Az. Time Alt. Az.
16 Feb - 02:55:16 10° SSW 03:05:20 26° SE 03:17:53 10° E visible
16 Feb - 05:01:16 10° SW 05:14:46 42° SSE 05:30:42 10° ESE visible
16 Feb - 07:10:18 10° WSW 07:25:32 44° S 07:40:59 10° SE daylight
16 Feb - 09:21:48 10° W 09:35:44 30° SSW 09:48:13 10° SSE daylight
16 Feb - 11:41:05 10° WSW 11:44:00 11° SW 11:46:49 10° SW daylight
17 Feb - 01:12:28 10° SE 01:14:54 11° SE 01:17:29 10° ESE visible
17 Feb - 03:11:52 10° SSW 03:22:32 31° SSE 03:36:12 10° E visible
17 Feb - 05:18:40 10° WSW 05:32:20 44° S 05:48:27 10° ESE visible
17 Feb - 07:28:05 10° WSW 07:43:06 41° SSW 07:58:16 10° SE daylight
17 Feb - 09:40:15 10° W 09:52:58 25° SW 10:04:32 10° S daylight
18 Feb - 01:25:49 10° SSE 01:31:47 15° SE 01:38:55 10° ESE visible
18 Feb - 03:28:46 10° SW 03:39:51 35° SSE 03:54:19 10° E visible
18 Feb - 05:36:10 10° WSW 05:49:55 44° S 06:06:06 10° ESE visible
18 Feb - 07:45:59 10° W 08:00:36 38° SSW 08:15:22 10° SE daylight
18 Feb - 09:59:08 10° W 10:10:07 20° SW 10:20:17 10° S daylight
19 Feb - 01:41:22 10° S 01:48:47 20° SE 01:58:12 10° E visible
19 Feb - 03:45:53 10° SW 03:57:15 38° SSE 04:12:16 10° ESE visible
19 Feb - 05:53:47 10° WSW 06:07:32 44° S 06:23:38 10° ESE visible
19 Feb - 08:04:01 10° W 08:18:03 33° SSW 08:32:12 10° SSE daylight
19 Feb - 10:18:52 10° WSW 10:27:10 15° SW 10:35:04 10° SSW daylight
20 Feb - 01:57:37 10° SSW 02:05:53 24° SE 02:16:51 10° E visible
20 Feb - 04:03:10 10° SW 04:14:43 40° SSE 04:30:06 10° ESE visible
20 Feb - 06:11:29 10° WSW 06:25:08 42° S 06:41:01 10° SE visible
20 Feb - 08:22:15 10° W 08:35:25 29° SSW 08:48:44 10° SSE daylight
20 Feb - 10:41:52 10° WSW 10:44:11 10° SW 10:46:27 10° SW daylight
21 Feb - 02:14:18 10° SSW 02:23:05 28° SSE 02:35:10 10° E visible
21 Feb - 04:20:36 10° WSW 04:32:16 42° S 04:47:50 10° ESE visible
21 Feb - 06:29:18 10° WSW 06:42:42 39° SSW 06:58:14 10° SE daylight
21 Feb - 08:40:46 10° W 08:52:43 24° SW 09:04:48 10° S daylight
22 Feb - 00:28:58 10° SSE 00:32:55 13° SE 00:37:31 10° ESE visible
22 Feb - 02:31:16 10° SSW 02:40:23 32° SSE 02:53:15 10° ESE visible
22 Feb - 04:38:08 10° WSW 04:49:51 42° S 05:05:27 10° ESE visible
22 Feb - 06:47:13 10° WSW 07:00:15 35° SSW 07:15:13 10° SE daylight
22 Feb - 08:59:49 10° WSW 09:09:57 19° SW 09:20:12 10° S daylight
23 Feb - 00:44:21 10° S 00:49:56 17° SE 00:57:02 10° ESE visible
23 Feb - 02:48:27 10° SW 02:57:47 35° SSE 03:11:11 10° ESE visible
23 Feb - 04:55:46 10° WSW 05:07:28 41° S 05:22:56 10° ESE visible
23 Feb - 07:05:17 10° WSW 07:17:44 31° SSW 07:31:54 10° SSE daylight
23 Feb - 09:20:01 10° WSW 09:27:08 14° SW 09:34:20 10° SSW daylight
24 Feb - 01:00:39 10° S 01:07:03 21° SE 01:15:43 10° ESE visible
24 Feb - 03:05:47 10° SW 03:15:16 37° SSE 03:29:01 10° ESE visible
24 Feb - 05:13:30 10° WSW 05:25:04 39° S 05:40:15 10° SE visible
24 Feb - 07:23:36 10° WSW 07:35:11 26° SSW 07:48:13 10° SSE daylight
25 Feb - 01:17:22 10° SSW 01:24:16 25° SSE 01:34:00 10° ESE visible
25 Feb - 03:23:14 10° SW 03:32:49 38° S 03:46:42 10° ESE visible
25 Feb - 05:31:20 10° WSW 05:42:41 35° SSW 05:57:22 10° SE visible
25 Feb - 07:42:18 10° WSW 07:52:35 21° SSW 08:03:58 10° S daylight
